Greenwood, SC

4:37 PM EDT on May 29, 2017 (GMT -0400)
Greenwood County

Weather History for KGRD - March, 2013

Change the Weather History Date:

Monday, March 11, 2013

  Actual Average (KAND) Record (KAND)
Temperature  
Mean Temperature 56 °F -  
Max Temperature 69 °F 64 °F 83 °F (1990)
Min Temperature 42 °F 39 °F 19 °F (1998)
Degree Days  
Heating Degree Days 10    
Growing Degree Days 6 (Base 50)    
Moisture  
Dew Point 48 °F    
Average Humidity 76    
Maximum Humidity 96    
Minimum Humidity 49    
Precipitation  
Precipitation 0.23 in - - ()
Sea Level Pressure  
Sea Level Pressure 30.00 in    
Wind  
Wind Speed 4 mph (SSE)    
Max Wind Speed 22 mph    
Max Gust Speed 28 mph    
Visibility 9 miles    
Events Rain    
Averages and records for this station are not official NWS values.
T = Trace of Precipitation, MM = Missing Value Source: NWS Daily Summary

Daily Weather History Graph

Daily Weather History Graph

Search for Another Location

Airport or City:

Trip Planner

Search our weather history database for the weather conditions in past years. The results will help you decide how hot, cold, wet, or windy it might be!

Date:

Astronomy

Mar. 11, 2013 Rise Set
Actual Time 7:44 AM EDT 7:33 PM EDT
Civil Twilight 7:19 AM EDT 7:58 PM EDT
Nautical Twilight 6:50 AM EDT 8:27 PM EDT
Astronomical Twilight 6:21 AM EDT 8:56 PM EDT
Moon 7:18 AM EDT (3/11) 7:41 PM EDT (3/11)
Length of Visible Light 12h 39m
Length of Day
11h 49m
Waning Crescent, 0% of the Moon is Illuminated
Mar 11
Waning Crescent
Mar 11
New
Mar 19
First Quarter
Mar 27
Full
Apr 3
Last Quarter

Hourly Weather History & Observations

Time (EDT) Temp. Windchill Dew Point Humidity Pressure Visibility Wind Dir Wind Speed Gust Speed Precip Events Conditions
12:56 AM 51.1 °F - 43.0 °F 74% 30.18 in 10.0 mi SSE 3.5 mph - N/A   Clear
1:56 AM 48.0 °F - 44.1 °F 86% 30.16 in 10.0 mi Calm Calm - N/A   Clear
2:56 AM 46.0 °F - 43.0 °F 89% 30.16 in 10.0 mi Calm Calm - N/A   Clear
3:56 AM 46.9 °F - 43.0 °F 86% 30.13 in 10.0 mi Calm Calm - N/A   Clear
4:56 AM 45.0 °F - 43.0 °F 93% 30.11 in 10.0 mi Calm Calm - N/A   Clear
5:56 AM 46.0 °F - 43.0 °F 89% 30.09 in 10.0 mi Calm Calm - N/A   Clear
6:56 AM 45.0 °F 43.5 °F 41.0 °F 86% 30.10 in 10.0 mi SE 3.5 mph - N/A   Clear
7:34 AM 42.8 °F - 39.2 °F 87% 30.12 in 10.0 mi Calm Calm - N/A   Mostly Cloudy
7:56 AM 42.1 °F - 39.9 °F 92% 30.11 in 10.0 mi Calm Calm - N/A   Scattered Clouds
8:56 AM 46.0 °F - 42.1 °F 86% 30.12 in 10.0 mi Calm Calm - N/A   Overcast
9:56 AM 52.0 °F - 44.1 °F 74% 30.11 in 10.0 mi SE 8.1 mph - N/A   Overcast
10:56 AM 59.0 °F - 48.0 °F 67% 30.08 in 10.0 mi SSE 10.4 mph - N/A   Mostly Cloudy
11:56 AM 64.0 °F - 50.0 °F 60% 30.07 in 10.0 mi SSW 16.1 mph 21.9 mph N/A   Overcast
12:56 PM 69.1 °F - 51.1 °F 53% 30.04 in 10.0 mi South 17.3 mph 25.3 mph N/A   Mostly Cloudy
1:56 PM 69.1 °F - 50.0 °F 51% 30.00 in 10.0 mi South 11.5 mph 26.5 mph N/A   Overcast
2:56 PM 69.1 °F - 48.9 °F 49% 29.94 in 10.0 mi South 21.9 mph 27.6 mph N/A   Partly Cloudy
3:56 PM 68.0 °F - 48.9 °F 50% 29.92 in 10.0 mi South 13.8 mph 19.6 mph N/A   Mostly Cloudy
4:56 PM 68.0 °F - 48.0 °F 49% 29.87 in 10.0 mi SSE 17.3 mph 25.3 mph N/A   Clear
5:56 PM 66.9 °F - 48.0 °F 51% 29.88 in 10.0 mi South 12.7 mph 21.9 mph N/A   Scattered Clouds
6:56 PM 66.0 °F - 48.9 °F 54% 29.88 in 10.0 mi SSE 9.2 mph - N/A   Mostly Cloudy
7:56 PM 60.1 °F - 54.0 °F 80% 29.87 in 10.0 mi SE 4.6 mph - 0.02 in Rain Light Rain
8:56 PM 59.0 °F - 54.0 °F 83% 29.86 in 10.0 mi ESE 5.8 mph - 0.01 in Rain Light Rain
9:56 PM 57.9 °F - 55.0 °F 90% 29.86 in 8.0 mi Calm Calm - 0.02 in Rain Light Rain
10:56 PM 57.0 °F - 55.9 °F 96% 29.87 in 4.0 mi Calm Calm - 0.06 in Rain Rain
11:20 PM 57.2 °F - 55.4 °F 94% 29.87 in 2.5 mi Calm Calm - 0.07 in Rain Rain
11:28 PM 57.2 °F - 55.4 °F 94% 29.87 in 4.0 mi Calm Calm - 0.09 in Rain Rain
11:56 PM 57.0 °F - 55.9 °F 96% 29.85 in 3.0 mi Calm Calm - 0.12 in Rain Light Rain